CAPE
0 0 0 0 0 0 0 0 0 0 0 0 106 410 443 1033 881 421 570 594 760 818 1161 1310 825 87 6 0 0 0 0 0 0 0 35 28 19 36 36 24 40 88 3 0 0 0 0 0 0
0 0 0 0 0 0 0 0 0 0 0 0 310 460 448 548 615 707 908 1150 772 796 1015 1129 807 54 0 0 0 0 6 4 7 24 96 176 159 120 105 65 42 12 0 0 0 0 0 0 0
0 0 0 0 0 0 0 0 0 0 0 0 11 51 339 527 838 875 1054 969 958 870 901 894 774 123 2 0 0 0 21 29 34 39 56 114 151 160 188 177 69 0 0 0 0 0 0 0 0
0 0 0 0 0 0 0 0 0 0 0 0 1 130 482 533 480 913 907 617 635 800 807 962 746 347 92 17 0 9 43 53 61 59 70 52 60 66 89 47 0 0 0 0 0 0 0 0 0
0 0 0 0 0 0 0 0 0 0 0 0 9 142 605 596 731 1064 652 324 207 712 850 937 769 539 247 59 28 54 87 66 58 71 75 78 46 37 38 2 0 0 0 0 0 0 0 0 0
0 0 0 0 0 0 0 0 0 0 0 0 108 185 296 728 741 903 760 257 258 344 706 953 984 778 473 272 142 162 145 125 122 67 60 78 75 57 53 15 0 0 0 0 0 0 0 0 0
0 0 0 0 0 0 0 0 0 0 0 0 40 97 36 243 752 816 829 470 305 278 386 715 996 1025 860 630 486 389 419 259 178 189 223 150 68 31 38 12 0 0 0 0 0 0 0 0 0
0 0 0 0 0 0 0 0 0 0 0 39 2 59 34 0 182 732 835 916 767 494 301 443 723 1062 1099 1059 904 773 704 632 418 257 227 292 200 102 16 0 0 0 0 0 0 0 0 0 0
0 0 0 0 0 0 0 0 0 0 0 0 0 35 0 0 0 615 1062 1234 1237 1059 416 321 439 592 787 977 1156 1129 1048 972 753 486 318 357 361 206 104 36 1 0 0 0 0 0 0 0 0
0 0 0 0 0 0 0 0 0 0 0 0 0 0 0 0 0 0 876 1168 1217 1188 624 410 429 451 495 743 1012 1171 1302 1320 1130 869 597 449 438 329 160 79 25 5 0 0 0 0 0 0 0
0 0 0 0 0 0 0 0 0 0 0 0 0 0 0 0 0 0 8 717 1145 1278 1003 587 367 414 381 603 733 955 1395 1408 1276 1059 823 524 463 439 304 119 67 50 19 0 0 0 0 0 0
0 0 0 0 0 0 0 0 0 0 0 0 0 0 0 0 0 0 0 0 584 1293 1186 828 453 380 407 571 432 472 664 852 959 1031 954 618 451 392 365 192 53 12 4 0 0 0 0 0 0
0 0 0 0 0 0 0 0 0 0 0 0 0 0 0 0 0 0 0 0 0 57 384 841 417 199 143 306 307 324 432 614 501 701 900 856 646 488 420 339 205 106 7 3 0 0 0 0 0
0 0 0 0 0 0 0 0 0 0 0 0 0 0 0 0 0 0 0 0 0 11 116 495 501 189 121 342 410 510 440 408 402 545 677 787 664 609 509 423 356 265 86 33 0 0 0 0 0
0 0 0 0 0 0 0 0 0 0 0 0 0 0 0 0 0 0 0 0 0 0 248 377 610 460 451 590 706 694 550 419 440 479 616 675 667 484 480 482 388 345 201 65 12 0 0 0 0
0 0 0 0 0 0 0 0 0 0 0 0 0 0 0 0 0 0 0 0 0 9 562 919 1010 684 814 720 276 269 1181 652 539 507 472 472 681 725 442 363 391 428 310 171 106 84 28 0 0
0 0 0 0 0 0 0 0 0 0 0 0 0 0 0 0 0 0 0 0 0 40 887 922 1008 1104 765 581 201 964 2049 1953 1257 715 511 468 464 541 630 445 508 594 527 311 236 262 160 3 2
0 0 0 0 0 0 0 0 0 0 0 0 0 0 0 0 0 0 0 0 0 0 243 88 47 340 377 359 202 199 898 1447 1849 1875 1489 1014 776 623 491 663 720 668 672 612 509 429 263 64 111
0 0 0 0 0 0 0 0 0 0 0 0 0 0 0 0 0 0 0 0 0 0 0 0 0 0 0 29 304 388 1258 1581 1534 1844 2036 1862 1840 1498 987 662 743 895 670 727 671 624 520 409 296
0 0 0 0 0 0 0 0 0 0 0 0 0 0 0 0 0 0 0 0 0 0 0 0 0 0 0 0 0 0 0 46 161 409 1221 2152 1943 1875 1722 1242 968 781 808 785 681 505 532 505 355
0 0 0 0 0 0 0 0 0 0 0 0 0 0 0 0 0 0 0 0 0 0 0 0 0 0 0 0 0 0 0 0 0 0 0 72 195 699 1614 1544 1205 990 879 869 720 514 486 441 400
0 0 0 0 0 0 0 0 0 0 0 0 0 0 0 0 0 0 0 0 0 0 0 0 0 0 0 0 0 0 0 0 0 0 0 0 0 0 7 62 1060 1360 1153 1015 763 796 552 425 393
0 0 0 0 0 0 0 0 0 0 0 0 0 0 0 0 0 0 0 0 0 0 0 0 0 0 0 0 0 0 0 0 0 0 0 0 0 0 0 0 0 228 947 725 304 563 268 55 241
0 0 0 0 0 0 0 0 0 0 0 0 0 0 0 0 0 0 0 0 0 0 0 0 0 0 0 0 0 0 0 0 0 0 0 0 0 0 0 0 9 68 113 348 201 17 6 42 208
0 0 0 0 0 0 0 0 0 0 0 0 0 0 0 0 0 0 0 0 0 0 0 0 0 0 0 0 0 0 0 0 0 0 0 0 0 0 0 0 0 56 103 52 0 0 0 0 263
0 0 0 0 0 0 0 0 0 0 0 0 0 0 0 0 0 0 0 0 0 0 0 0 0 0 0 0 0 0 0 0 0 0 0 0 0 0 0 0 0 0 124 214 114 49 0 0 60
0 0 0 0 0 0 0 0 0 0 0 0 0 0 0 0 0 0 0 0 0 0 0 0 0 0 0 0 0 0 0 0 0 0 0 0 0 0 0 0 0 0 0 10 69 101 154 103 78
0 0 0 0 0 0 0 0 0 0 0 0 0 0 0 0 0 0 0 0 0 0 0 0 0 0 0 0 0 0 0 0 0 0 0 0 0 0 0 0 0 0 0 0 0 67 108 83 21
0 0 0 0 0 0 0 0 0 0 0 0 0 0 0 0 0 0 0 0 0 0 0 0 0 0 0 0 0 0 0 0 0 0 0 0 0 0 0 0 0 0 0 0 0 0 0 28 38
0 0 0 0 0 0 0 0 0 0 0 0 0 0 0 0 0 0 0 0 0 0 0 0 0 0 0 0 0 0 0 0 0 0 0 0 0 0 0 0 0 0 0 0 0 0 0 0 0
CIN
0 0 0 0 0 0 0 0 0 0 0 0 -88 -85 -104 -118 -82 -62 -455 -474 -474 -456 -405 -358 -401 -552 -660 0 0 0 0 0 0 0 -509 -479 -470 -422 -384 -382 -333 -261 -261 0 0 0 0 0 0
0 0 0 0 0 0 0 0 0 0 0 0 -58 -99 -122 -151 -286 -362 -378 -499 -486 -479 -431 -397 -428 -580 0 0 0 0 -299 -264 -257 -552 -453 -383 -369 -365 -334 -323 -319 -208 0 0 0 0 0 0 0
0 0 0 0 0 0 0 0 0 0 0 0 -50 -46 -117 -145 -268 -315 -365 -486 -471 -473 -441 -410 -417 -560 -85 0 0 0 -568 -562 -553 -531 -500 -430 -376 -353 -318 -293 -314 0 0 0 0 0 0 0 0
0 0 0 0 0 0 0 0 0 0 0 0 -5 -77 -103 -131 -205 -283 -442 -493 -490 -480 -449 -395 -414 -482 -558 -533 0 -334 -556 -538 -519 -511 -485 -481 -451 -426 -407 -380 -5 0 0 0 0 0 0 0 0
0 0 0 0 0 0 0 0 0 0 0 0 -40 -68 -66 -122 -214 -307 -391 -479 -496 -466 -419 -381 -394 -424 -486 -544 -542 -533 -510 -519 -493 -496 -510 -471 -496 -490 -456 -88 0 0 0 0 0 0 0 0 0
0 0 0 0 0 0 0 0 0 0 0 0 -61 -64 -90 -155 -156 -265 -346 -417 -449 -465 -430 -367 -339 -353 -408 -456 -487 -462 -458 -471 -460 -473 -475 -470 -479 -483 -482 -540 0 0 0 0 0 0 0 0 0
0 0 0 0 0 0 0 0 0 0 0 0 -60 -62 -103 -107 -134 -207 -287 -318 -387 -450 -462 -405 -342 -306 -317 -349 -375 -385 -366 -403 -425 -419 -382 -422 -487 -520 -544 -584 0 0 0 0 0 0 0 0 0
0 0 0 0 0 0 0 0 0 0 0 -54 -4 -59 -83 0 -149 -184 -258 -273 -320 -398 -450 -431 -378 -293 -261 -248 -267 -297 -316 -325 -375 -397 -395 -372 -401 -452 -552 0 0 0 0 0 0 0 0 0 0
0 0 0 0 0 0 0 0 0 0 0 0 -2 -70 0 0 0 -100 -133 -238 -278 -328 -423 -454 -421 -382 -326 -269 -220 -217 -235 -240 -276 -345 -389 -355 -361 -424 -492 -569 -205 0 0 0 0 0 0 0 0
0 0 0 0 0 0 0 0 0 0 0 0 0 0 0 0 0 0 -92 -112 -186 -254 -350 -405 -413 -439 -438 -356 -295 -248 -210 -205 -231 -276 -320 -339 -330 -364 -435 -511 -611 -448 0 0 0 0 0 0 0
0 0 0 0 0 0 0 0 0 0 0 0 0 0 0 0 0 0 -9 -70 -90 -174 -274 -341 -404 -428 -434 -382 -377 -322 -191 -146 -143 -192 -253 -303 -299 -316 -378 -471 -531 -578 -641 0 0 0 0 0 0
0 0 0 0 0 0 0 0 0 0 0 0 0 0 0 0 0 0 0 0 -84 -116 -155 -296 -382 -411 -399 -368 -384 -377 -358 -318 -268 -224 -212 -290 -313 -311 -321 -439 -563 -649 -578 0 0 0 0 0 0
0 0 0 0 0 0 0 0 0 0 0 0 0 0 0 0 0 0 0 0 0 -55 -110 -166 -310 -337 -358 -383 -377 -375 -351 -338 -340 -293 -270 -251 -273 -294 -275 -309 -387 -534 -613 -161 0 0 0 0 0
0 0 0 0 0 0 0 0 0 0 0 0 0 0 0 0 0 0 0 0 0 -119 -125 -161 -223 -270 -316 -318 -300 -316 -301 -298 -329 -335 -320 -290 -282 -293 -301 -322 -357 -397 -499 -566 -170 0 0 0 0
0 0 0 0 0 0 0 0 0 0 0 0 0 0 0 0 0 0 0 0 0 0 -171 -131 -190 -232 -231 -227 -234 -258 -306 -306 -276 -303 -322 -322 -298 -315 -276 -303 -360 -395 -444 -514 -547 0 0 0 0
0 0 0 0 0 0 0 0 0 0 0 0 0 0 0 0 0 0 0 0 0 -62 -142 -175 -165 -189 -163 -139 -262 -293 -197 -282 -243 -246 -283 -270 -253 -234 -261 -298 -353 -368 -360 -367 -391 -413 -469 0 0
0 0 0 0 0 0 0 0 0 0 0 0 0 0 0 0 0 0 0 0 0 -69 -116 -115 -109 -100 -156 -135 -234 -180 -94 -112 -113 -181 -239 -244 -256 -255 -216 -232 -243 -261 -243 -284 -286 -276 -337 -207 -205
0 0 0 0 0 0 0 0 0 0 0 0 0 0 0 0 0 0 0 0 0 0 -127 -34 -39 -131 -144 -167 -206 -228 -109 -56 -40 -33 -56 -137 -177 -203 -231 -197 -175 -194 -172 -189 -223 -253 -290 -338 -307
0 0 0 0 0 0 0 0 0 0 0 0 0 0 0 0 0 0 0 0 0 0 0 0 0 0 0 -198 -147 -146 -70 -39 -38 -47 -38 -35 -48 -84 -132 -170 -170 -148 -142 -135 -160 -185 -195 -200 -264
0 0 0 0 0 0 0 0 0 0 0 0 0 0 0 0 0 0 0 0 0 0 0 0 0 0 0 0 0 0 0 -167 -249 -202 -99 -25 -22 -32 -50 -92 -118 -145 -121 -133 -138 -147 -137 -133 -214
0 0 0 0 0 0 0 0 0 0 0 0 0 0 0 0 0 0 0 0 0 0 0 0 0 0 0 0 0 0 0 0 0 0 0 -125 -76 -115 -13 -28 -62 -92 -111 -107 -115 -138 -106 -83 -129
0 0 0 0 0 0 0 0 0 0 0 0 0 0 0 0 0 0 0 0 0 0 0 0 0 0 0 0 0 0 0 0 0 0 0 0 0 0 -34 -22 -37 -21 -38 -46 -69 -41 -21 -41 -59
0 0 0 0 0 0 0 0 0 0 0 0 0 0 0 0 0 0 0 0 0 0 0 0 0 0 0 0 0 0 0 0 0 0 0 0 0 0 0 0 0 -81 -42 -64 -132 -106 -73 -45 -53
0 0 0 0 0 0 0 0 0 0 0 0 0 0 0 0 0 0 0 0 0 0 0 0 0 0 0 0 0 0 0 0 0 0 0 0 0 0 0 0 -47 -94 -136 -85 -107 -95 -131 -179 -160
0 0 0 0 0 0 0 0 0 0 0 0 0 0 0 0 0 0 0 0 0 0 0 0 0 0 0 0 0 0 0 0 0 0 0 0 0 0 0 0 0 -55 -80 -67 0 0 0 0 -111
0 0 0 0 0 0 0 0 0 0 0 0 0 0 0 0 0 0 0 0 0 0 0 0 0 0 0 0 0 0 0 0 0 0 0 0 0 0 0 0 0 0 -9 -46 -64 -115 0 0 -181
0 0 0 0 0 0 0 0 0 0 0 0 0 0 0 0 0 0 0 0 0 0 0 0 0 0 0 0 0 0 0 0 0 0 0 0 0 0 0 0 0 0 0 -6 -28 -34 -63 -116 -161
0 0 0 0 0 0 0 0 0 0 0 0 0 0 0 0 0 0 0 0 0 0 0 0 0 0 0 0 0 0 0 0 0 0 0 0 0 0 0 0 0 0 0 0 0 -49 -49 -60 -123
0 0 0 0 0 0 0 0 0 0 0 0 0 0 0 0 0 0 0 0 0 0 0 0 0 0 0 0 0 0 0 0 0 0 0 0 0 0 0 0 0 0 0 0 0 0 0 -83 -99
0 0 0 -1 0 0 0 0 0 0 0 0 0 0 0 0 0 0 0 0 0 0 0 0 0 0 0 0 0 0 0 0 0 0 0 0 0 0 0 0 0 0 0 0 0 0 0 0 0
Wind_Speed
25 26 25 21 24 21 23 21 19 19 14 18 13 9 11 13 14 17 10 15 16 18 21 23 23 22 22 22 21 21 20 20 21 21 21 21 22 21 20 19 18 17 16 15 15 15 16 16 17
25 24 19 20 26 25 23 20 21 20 20 17 12 9 13 14 13 9 8 8 15 16 18 18 20 20 20 20 20 20 20 21 21 22 22 22 22 21 20 19 18 17 16 15 15 15 16 16 16
24 21 21 22 25 26 21 18 19 27 24 20 12 14 15 10 8 6 6 10 11 11 15 13 14 16 17 17 17 17 17 17 18 19 19 19 19 18 17 17 16 16 16 16 16 16 16 16 16
21 19 21 27 31 27 24 27 28 33 23 19 11 16 14 13 9 6 9 8 8 7 10 11 11 11 11 12 13 14 15 15 16 16 16 16 16 15 15 14 14 14 14 15 15 15 15 15 15
20 20 26 27 31 30 29 28 30 25 17 18 14 14 13 13 7 8 9 7 6 5 6 8 8 8 8 9 10 11 12 12 13 13 13 13 14 14 14 13 13 12 13 12 12 13 13 13 13
22 21 27 32 31 30 28 25 29 27 20 16 11 10 13 6 6 6 8 8 7 7 6 6 7 7 7 7 7 8 9 9 10 11 12 12 11 11 12 12 12 11 11 11 11 11 11 12 12
25 24 29 31 30 30 30 22 24 29 22 17 6 8 9 5 4 8 9 9 8 7 8 6 5 5 5 4 4 5 5 7 7 8 8 9 10 10 10 10 10 11 10 9 9 9 9 10 10
23 26 30 30 29 32 24 28 24 27 23 8 7 12 8 9 2 1 5 8 8 7 6 5 4 3 3 3 3 3 4 5 6 6 6 6 6 7 8 8 8 8 9 9 9 8 8 7 7
21 31 34 34 28 29 25 28 27 24 16 12 12 4 4 6 7 2 4 3 3 2 2 4 5 4 4 4 5 4 4 4 5 6 6 5 3 3 4 5 6 7 8 8 6 6 5 5 4
27 33 35 29 28 29 32 26 27 22 18 13 6 5 4 4 5 3 3 5 5 4 3 4 4 5 5 4 4 4 4 5 6 6 6 6 5 4 4 4 5 6 6 5 4 3 2 1 2
26 35 32 33 31 29 32 34 26 26 22 17 16 12 13 11 10 11 4 5 8 8 7 8 7 7 6 5 5 5 5 6 9 10 9 10 11 10 10 11 11 9 8 7 6 6 6 6 5
29 30 33 35 34 32 33 28 28 24 24 17 16 17 14 15 14 17 17 10 8 10 11 13 11 8 7 6 6 6 6 6 8 10 11 10 13 15 16 14 14 15 15 13 14 11 11 10 12
28 31 31 34 34 32 33 34 30 25 26 26 22 20 23 21 19 18 19 18 10 8 10 10 11 11 10 8 8 8 10 11 10 11 13 15 15 17 14 16 14 17 16 16 16 18 19 16 17
23 27 33 34 36 33 32 36 32 28 27 31 30 29 26 27 24 24 24 25 20 14 9 9 10 10 11 11 10 9 10 9 12 16 15 16 19 18 20 21 21 20 19 18 19 18 17 19 21
29 33 33 35 34 34 28 37 37 34 32 36 35 34 31 28 27 28 25 24 25 18 12 9 10 11 10 9 11 10 11 18 19 18 19 22 19 19 21 24 24 23 24 23 23 25 25 23 22
27 26 32 27 24 24 25 42 37 33 33 33 33 32 29 25 23 24 23 21 19 14 12 10 9 11 10 9 12 19 22 19 22 23 22 20 23 23 23 24 25 25 26 24 24 24 23 23 22
25 30 31 31 26 25 26 39 35 30 28 30 32 33 30 24 24 22 23 16 14 11 9 9 9 10 11 13 19 23 25 22 25 25 25 24 23 24 25 25 26 25 25 27 26 27 26 26 25
29 29 28 27 20 25 35 41 38 30 27 29 30 26 19 19 22 21 16 11 8 7 7 8 9 10 13 17 20 24 26 27 27 25 23 23 25 26 27 28 28 27 27 27 27 28 28 28 28
28 32 33 33 33 28 30 32 31 24 23 22 23 24 20 21 22 20 14 12 11 10 9 9 8 9 10 14 16 21 23 22 22 27 29 29 29 30 31 31 31 31 29 28 28 28 28 29 28
29 33 36 35 35 25 29 32 27 22 20 20 21 21 23 26 25 20 17 10 10 8 8 7 8 10 12 15 19 24 28 29 31 32 35 35 33 34 34 32 33 34 34 33 32 33 34 33 28
32 32 31 32 32 29 30 36 31 28 24 22 21 23 19 15 15 17 17 10 8 8 7 6 7 8 11 13 18 22 26 29 33 37 38 36 36 34 38 41 35 34 34 39 39 37 39 38 36
40 29 32 35 35 40 27 44 36 33 36 34 36 35 31 22 19 19 14 11 9 8 7 8 11 14 18 21 23 24 27 32 33 37 39 42 39 37 38 40 39 36 35 36 38 37 40 43 42
23 26 28 28 33 32 33 34 33 28 37 40 43 44 43 39 21 14 12 9 7 5 4 6 10 15 20 21 24 29 31 33 37 40 41 41 39 38 38 40 42 41 34 34 35 34 30 53 34
26 25 25 25 27 39 31 32 35 31 32 37 40 39 37 25 14 12 10 8 6 4 4 5 9 12 16 20 25 30 35 37 39 40 42 40 40 39 39 40 39 40 38 35 35 36 32 30 35
24 26 31 34 36 40 29 37 34 34 30 28 32 30 25 14 7 8 10 8 7 7 8 9 11 16 15 20 25 30 36 38 37 37 36 38 38 37 39 39 40 40 40 39 39 43 43 40 37
25 24 29 34 34 35 31 33 27 26 25 27 21 18 15 7 1 4 6 7 9 10 11 13 15 19 19 22 28 31 33 33 33 34 35 35 34 33 34 37 39 40 40 40 40 39 37 36 37
23 28 24 31 31 37 33 34 32 28 25 20 15 13 13 10 5 6 8 10 10 11 13 15 18 19 22 26 27 30 30 30 31 32 32 33 33 34 34 35 38 39 40 40 39 39 40 40 41
18 21 26 26 34 35 29 28 22 16 16 17 20 19 18 17 14 14 16 16 16 17 18 19 22 24 25 25 27 28 28 30 31 32 32 33 33 33 34 36 37 39 39 39 38 38 37 39 41
25 26 24 25 26 33 34 30 17 16 17 21 18 19 21 20 22 23 23 23 24 25 25 25 27 27 27 27 28 29 30 30 29 30 32 33 33 33 34 36 37 39 39 39 39 39 39 41 42
21 25 24 32 33 30 33 35 17 23 25 23 23 20 18 26 29 27 28 29 30 31 29 27 28 27 27 27 28 29 30 30 30 32 32 33 35 34 35 37 38 40 41 40 40 41 39 39 41
Wind_Direction
277 284 283 280 246 252 250 258 277 290 297 309 312 336 310 301 301 300 26 101 104 108 116 118 114 106 103 100 97 93 90 89 89 89 89 89 90 88 85 82 79 74 68 61 56 56 57 54 51
280 283 283 265 244 245 248 258 264 283 288 316 343 334 318 303 321 20 48 70 110 109 112 114 114 111 108 105 102 101 98 96 97 98 97 97 96 93 90 86 82 76 70 65 62 60 60 57 55
280 281 266 254 248 244 248 263 278 276 293 297 317 321 307 316 358 12 17 94 106 106 111 112 112 112 111 108 105 103 100 98 98 100 100 98 98 96 92 88 83 80 79 78 77 74 72 69 66
277 273 264 247 241 248 252 260 274 265 284 307 328 302 298 314 326 28 89 95 97 105 113 117 115 113 113 110 108 108 108 105 102 101 99 100 99 97 92 88 85 84 85 83 80 76 74 73 70
272 267 254 249 245 247 252 271 278 272 294 308 312 298 304 311 31 80 87 97 104 113 119 125 126 123 121 119 117 115 114 112 109 105 101 103 103 104 101 97 92 88 87 84 81 80 79 76 75
263 265 255 247 251 251 258 277 281 280 294 304 332 302 302 6 49 76 84 93 101 118 129 134 138 139 137 133 130 128 125 121 119 118 117 111 107 106 106 103 101 96 92 92 92 90 89 85 86
257 260 255 255 256 258 246 291 287 290 291 292 313 310 315 350 56 93 84 85 93 102 124 143 157 161 161 159 151 145 140 136 133 128 122 120 123 120 118 113 113 112 109 107 103 101 100 98 93
262 262 258 257 257 255 266 277 295 303 284 286 280 295 299 313 298 354 72 85 90 95 111 138 161 199 230 237 211 185 174 164 158 151 145 136 132 136 137 135 131 129 129 127 123 120 115 102 89
265 256 255 255 259 259 276 276 288 298 280 296 299 291 306 327 16 22 316 321 341 24 107 137 154 187 222 249 258 246 224 211 194 186 185 174 178 176 167 166 160 153 151 148 143 138 131 116 96
255 254 256 262 263 264 267 280 282 291 296 289 306 326 349 344 342 7 290 274 271 261 234 202 222 201 184 211 227 234 226 239 231 230 234 245 240 244 257 244 220 196 191 191 191 192 197 309 358
260 257 262 265 266 267 267 270 277 279 279 287 291 306 312 306 308 306 292 241 237 244 253 215 211 188 195 237 250 259 261 268 270 266 259 266 272 271 272 276 276 272 256 263 260 264 279 285 296
263 264 264 264 266 270 269 280 278 279 277 293 299 299 306 311 318 306 303 315 274 266 256 265 264 251 246 245 247 235 243 255 265 257 257 253 267 272 277 273 273 273 277 276 279 275 278 283 290
263 265 267 265 266 269 271 274 279 277 280 287 293 293 291 295 301 310 305 302 305 273 256 249 245 238 234 248 253 256 268 272 270 266 263 266 269 271 267 274 271 274 274 271 273 280 283 283 287
271 267 266 267 267 272 273 273 278 278 283 280 284 286 288 289 293 296 297 293 298 294 268 251 230 238 248 266 261 264 269 273 277 277 277 266 270 270 272 273 272 272 272 271 271 272 274 280 285
271 269 273 270 272 273 279 273 272 278 283 280 280 282 283 285 292 294 290 287 290 290 282 254 244 233 243 255 263 270 270 277 279 286 279 275 274 272 275 276 275 274 274 273 277 281 282 283 284
274 276 271 279 280 282 277 273 278 278 279 280 280 282 286 287 289 296 294 290 289 282 279 272 258 249 247 248 276 289 283 283 281 283 284 277 276 278 279 278 277 277 276 276 278 280 280 276 275
271 268 272 277 277 281 279 276 282 278 280 280 280 282 284 280 285 289 294 292 285 284 278 273 268 258 250 275 287 291 291 289 285 284 281 279 278 277 278 280 282 282 279 276 276 279 277 277 276
265 268 273 275 287 285 282 280 278 277 280 281 283 287 283 275 281 288 288 285 283 278 270 282 285 283 277 282 285 293 292 291 290 289 285 284 282 279 277 281 282 284 281 276 275 276 278 279 280
270 269 272 275 279 292 289 295 292 274 274 285 288 289 282 281 286 287 284 275 273 276 264 271 281 287 294 302 300 298 294 292 291 292 292 289 286 286 284 282 283 281 278 276 273 277 274 275 279
268 270 271 276 280 289 291 291 297 293 276 287 291 290 286 285 287 282 283 261 265 258 270 278 292 300 306 309 309 304 299 297 296 296 295 294 294 293 290 286 284 281 280 278 275 273 276 274 270
268 270 275 278 283 289 290 283 286 290 296 292 293 297 295 274 271 274 275 255 259 258 263 284 304 313 319 323 320 313 308 301 298 295 294 297 301 302 294 291 289 285 283 281 280 278 275 273 272
266 278 280 280 280 277 290 278 280 284 280 284 285 288 295 290 282 273 255 243 255 264 275 286 298 304 306 306 311 312 311 305 303 298 295 293 297 301 301 298 295 288 287 286 288 289 284 278 275
288 287 287 286 280 283 280 283 280 290 285 285 285 282 283 289 272 250 227 231 252 256 265 294 307 311 309 310 310 309 310 308 305 302 299 298 299 302 303 301 298 296 291 285 286 281 283 289 283
289 288 289 289 285 271 281 283 280 291 294 295 295 290 291 294 276 236 220 227 254 252 282 307 313 316 317 315 314 312 310 307 305 303 299 300 302 303 304 303 303 300 296 292 289 286 282 275 288
285 287 280 277 274 274 288 282 286 292 301 303 305 306 312 306 268 212 213 237 255 271 288 299 307 309 318 318 319 318 314 310 306 305 305 304 305 306 306 306 305 304 300 296 293 292 290 291 292
278 282 280 280 280 282 289 285 292 306 308 303 316 330 336 343 277 242 257 264 277 284 292 299 304 307 313 316 316 318 318 315 310 307 306 307 309 310 311 309 309 309 307 302 297 294 290 287 286
287 278 291 283 286 283 286 289 294 302 309 307 307 312 319 314 308 285 282 287 287 289 294 298 303 307 309 312 314 315 314 316 312 311 309 308 309 310 310 311 310 310 308 307 304 298 292 288 287
298 296 285 288 281 282 288 290 294 309 323 328 313 309 311 296 293 293 293 293 294 297 297 298 301 303 305 307 309 309 309 312 311 310 311 310 310 309 309 310 310 309 309 307 306 302 299 292 287
292 287 290 290 283 283 285 287 298 309 314 312 320 311 302 308 297 295 298 300 299 300 299 299 300 302 302 303 304 304 305 307 307 307 308 310 311 309 309 310 309 309 308 308 304 302 300 294 291
301 293 290 279 281 285 286 282 289 304 306 310 306 310 310 296 292 298 298 300 301 300 300 300 301 299 300 301 300 300 302 304 303 303 304 307 307 309 307 309 308 307 306 306 304 301 299 297 293